Погода в Преображенке

Хотите узнать прогноз погоды в Преображенке? Тогда Вам сюда: Погода в Преображенке

Поиск расширенной информации на нашем сайте:

Полезная информация:

Новости сайта



02.01.2020
Опубликован Долгосрочный прогноз погоды по городам России и ближнего зарубежья на январь 2020 года.
Карты: Прогноз на январь и февраль 2020 года, Сравнение прогнозируемой аномалии приземной температуры воздуха на январь 2020 года по разным моделям.




Погода в Преображенке - сегодня

Время (UTC), дата Ветер
(°,м/с) 
Видим.   Явления Облачность Т
(°С)
Тd
(°С)
f(%) Тe
(°С)
Pmin
(гПа)
dP
(гПа)
Po
(мм)
O2
(г/м3)
Тmin Tmax R s Состояние
почвы
21 23.11.20 270 (З) 5{10}  н/о    10/6 600 м кучево-дожд., средняя 
[Cb cap|Ac As]
-9 -13.4 70 -14  1028.1  2.1  742  311           
00 24.11.20 320 (СЗ) н/о    9/3 600 м средняя, верхняя 
[Sc|Ac As|Cs]
-11.7 -14.5 80 -12  1031.4  2.7  744  315  -12      26  равномерный
сухой снег
100% 
03 24.11.20 тихо ()   20000 м    3/0 верхняя 
[Ci fib]
-14.5 -15.8 90 -15  1034.9  3.1  747  319  -17.7         
06 24.11.20 270 (З) 20000 м    3/0 верхняя 
[Ci fib]
-11.6 -16 70 -14  1035.3  0.8  747  316           
09 24.11.20 тихо ()   н/о    3/0 средняя, верхняя 
[Ac lent|Ci fib]
-18.3 -20.9 80 -18  1037.5  748  325           
12 24.11.20 160 (Ю) н/о    4/0 верхняя 
[Ci fib]
-24.4 -26.9 80 -25  1039.5  749  333    -11.6       
15 24.11.20 140 (ЮВ) н/о  слаб. снег  10/0 средняя 
[Ac As]
-17.1 -19 85 -17  1038.7  0.4  749  324           
18 24.11.20 140 (ЮВ) н/о  слаб. ливневой снег  10/8 600 м кучево-дожд., средняя 
[Cb cap|Ac As]
-14.5 -16.5 85 -15  1038.2  -0.1  749  320           
21 24.11.20 140 (ЮВ) н/о  слаб. ливневой снег  10/10 600 м кучево-дожд. 
[Cb cap]
-13.3 -15.3 85 -13  1037.5  -0.5  741  315           
00 25.11.20 тихо ()   н/о  {ливн. осадки}  10/10 600 м кучево-дожд. 
[Cb cap]
-13.1 -14.4 90 -13  1038.4  0.9  749  318  -24.6    0.5  27  равномерный
сухой снег
100% 
03 25.11.20 160 (Ю) 20000 м  слаб. ливневой снег  9/9 600 м кучево-дожд. 
[Cb cap]
-11.9 -13.2 90 -12  1039.5  1.1  750  317           
06 25.11.20 270 (З) 20000 м  слаб. ливневой снег  9/9 600 м кучево-дожд. 
[Cb cap]
-10.1 -12.1 85 -10  1039.7  0.5  751  315           
09 25.11.20 140 (ЮВ) н/о  {ливн. осадки}  10/10 600 м кучево-дожд. 
[Cb cap]
-10.9 -12.2 90 -11  1040.8  751  316           
12 25.11.20 тихо ()   н/о  {ливн. осадки}  9/9 600 м 
[Sc]
-11.3 -12.6 90 -11  1041.3  0.5  752  317    -10  0.0     
15 25.11.20 230 (ЮЗ) н/о  слаб. снег  10/6 600 м средняя 
[Sc|Ac As]
-12.2 -13.5 90 -12  1041.9  0.3  752  318           
18 25.11.20 230 (ЮЗ) н/о  слаб. снег  10/10 600 м 
[Sc]
-12.7 -14 90 -13  1042  752  319           
21 25.11.20 160 (Ю) н/о  слаб. снег  10/10 600 м 
[Sc]
-12.4 -13.7 90 -12  1041.6  -0.2  752  319           
00 26.11.20 160 (Ю) н/о  слаб. снег  10/10 600 м 
[Sc]
-12.2 -13.5 90 -12  1042.1  0.4  752  318  -12.9    0.3  27  равномерный
сухой снег
100% 
03 26.11.20 230 (ЮЗ) 20000 м  {снег}  10/10 600 м кучево-дожд. 
[Cb cap]
-10.6 -12.6 85 -12  1041.7  -0.1  752  316           
06 26.11.20 230 (ЮЗ) 20000 м  слаб. ливневой снег  10/10 600 м кучево-дожд. 
[Cb cap]
-10.6 -13.4 80 -12  1041.6  -0.1  752  316           
09 26.11.20 230 (ЮЗ) н/о  в посл. час ливневой снег  10/10 600 м кучево-дожд. 
[Cb cap]
-11.1 -13.9 80 -11  1042.1  0.4  752  317           
12 26.11.20 250 (З) н/о  слаб. ливневой снег  10/10 600 м кучево-дожд. 
[Cb cap]
-11.1 -13.9 80 -11  1042  -0.1  752  317    -10.6  0.2     
15 26.11.20 140 (ЮВ) н/о  слаб. ливневой снег  10/10 600 м кучево-дожд. 
[Cb cap]
-11 -13 85 -11  1040.9  -1  751  317           
18 26.11.20 140 (ЮВ) н/о  слаб. ливневой снег  10/10 600 м кучево-дожд. 
[Cb cap]
-11.7 -13 90 -12  1040.9  -0.2  751  317           
21 26.11.20 160 (Ю) н/о  слаб. ливневой снег  10/10 600 м кучево-дожд. 
[Cb cap]
-11.6 -12.9 90 -11  1039.7  -1  750  317           
Время (UTC), дата Ветер
(°,м/с) 
Видим.   Явления Облачность Т
(°С)
Тd
(°С)
f(%) Тe
(°С)
Pmin
(гПа)
dP
(гПа)
Po
(мм)
O2
(г/м3)
Тmin Tmax R s Состояние
почвы

Для получения пояснительной информации подведите курсор к названию столбца.

ПОГОДА в Преображенке - архив

Всё, что Вы хотите узнать о погоде в Преображенке - удобно и подробно!

Выберите нужную дату (начиная с 1 января 2019* года) и нажмите кнопку "Найти".
Будут отображены архивные сводки погоды по пункту Преображенка, начиная с указанной даты.


Отображать данные в формате CSV (для использования в таблицах Excel)


Внимание! Наш архив погоды предназначен исключительно для личного некоммерческого использования в познавательных целях. Если Вам необходимы официальные справки о состоянии погоды (для производственных, юридических, коммерческих и т.п. целей), обращайтесь в органы Росгидромета.

*Примечание: данная дата относится к архиву по метеостанциям СССР (Россия, СНГ, Балтия).
Архив по метеостанциям Зарубежной Европы и Азии (кроме Китая) хранится 10 дней, по другим регионам земного шара (Китай, Африка, Америка, Австралия, Океания) - 1 день.

Преображенка - район местоположения метеостанции


Название, широта, долгота, высота метеостанции:
Преображенка 60.1°ш. 108°д. 292 м над ур. моря [Российская Федерация]

Дополнительная информация

В oтличие oт бoльшинства пoгoдных сайтoв мы публикуем пoдрoбную метеoинфoрмацию в детальнoм прoфессиoнальнoм фoрмате.

Характеристики температуры и влажнoсти вoздуха измеряются на высoте 2 м в тени вдали oт зданий и деревьев.
Скoрoсть ветра измеряется на высoте 10 м (на урoвне рoста челoвека скoрoсть ветра ниже в 1.5-2 раза). Если метеoстанция нахoдится в гoрoде или в лесу, тo скoрoсть ветра занижена на 2-4 м/с пo сравнению с oткрытым местoм. Скoрoсть ветра над акватoриями крупных рек и oзёр, а также на вершинах хoлмoв на 2-5 м/с выше, чем в oбычных услoвиях.
Атмoсфернoе давление в разных тoчках местнoсти мoжет значительнo oтличаться oт давления на метеoстанции, в зависимoсти oт услoвий рельефа (при пoдъёме на 10 м давление пoнижается примернo на 1 мм рт.ст.).